Powrót do katalogu

STARLINK-35926

AktywnyŁącznośćVLEO
NORAD 66642·PAYLOAD·🇺🇸 United States

Wystrzelony Nov 23, 2025 z Vandenberg Space Force Base

Loading…

Następne Przeloty (najbliższe 24 godziny)

TLE

ŚwieżeSource: CelesTrak SupGP

Epoka: Sep 14, 2026, 23:08 UTC

1 66642C 25271AB  26257.96437500  .00008211  00000+0  24269-3 0  2571
2 66642  53.1593 339.5486 0001212  79.3648 248.1177 15.34374536    15

Śledź STARLINK-35926 w czasie rzeczywistym z AllMySat

Download on the App Store